GSAT0103 (GALILEO-FM3)

Last updated on Fri Jun 19 2026 17:09:21 GMT+0000 (Coordinated Universal Time)

1 38857U 12055A 26168.47561804 -.00000011 00000+0 00000+0 0 9993 2 38857 55.8068 101.5377 0004771 306.3432 53.5821 1.70473345 85011
UTC large
Height (km)
Speed (km/s)
/
Latitude / Longitude
Inclination (degrees)
Orbital Period (minutes)
Azimuth
Elevation
Range (km)
Doppler Factor

Next 0 passes for location: London (51.5072 / 0.1276)

No passes found over London.
GSAT0103 (GALILEO-FM3)